Voltar ao catálogo

STARLINK-35658

AtivoComunicaçõesVLEO
NORAD 66126·PAYLOAD·🇺🇸 United States

Lançado Oct 22, 2025 de Vandenberg Space Force Base

Loading…

Próximas Passagens (próximas 24 horas)

TLE

AtualizadoSource: CelesTrak SupGP

Época: Sep 14, 2026, 22:53 UTC

1 66126C 25237N   26257.95395833  .00027724  00000+0  81903-3 0  2579
2 66126  53.1577 237.3200 0001211  95.3019 231.0365 15.34379794    13

Acompanhe STARLINK-35658 em tempo real com AllMySat

Download on the App Store